Weather History for NW Arkansas Airport, AR

Change the Weather History Date:

Wednesday, March 20, 2013

  Actual Average Record
Temperature  
Mean Temperature 38 °F -  
Max Temperature 46 °F - - ()
Min Temperature 30 °F - - ()
Degree Days  
Heating Degree Days 27    
Moisture  
Dew Point 23 °F    
Average Humidity 60    
Maximum Humidity 89    
Minimum Humidity 30    
Precipitation  
Precipitation 0.00 in - - ()
Sea Level Pressure  
Sea Level Pressure 30.25 in    
Wind  
Wind Speed 5 mph (NNW)    
Max Wind Speed 20 mph    
Max Gust Speed 26 mph    
Visibility 10 miles    
Events      
T = Trace of Precipitation, MM = Missing Value Source: NWS Daily Summary

Daily Weather History Graph

Daily Weather History Graph

Search for Another Location

Airport:

Trip Planner

Search our weather history database for the weather conditions in past years. The results will help you decide how hot, cold, wet, or windy it might be!

Date:

Astronomy

Mar. 20, 2013 Rise Set
Actual Time 7:20 AM CDT 7:29 PM CDT
Civil Twilight 6:54 AM CDT 7:54 PM CDT
Nautical Twilight 6:24 AM CDT 8:24 PM CDT
Astronomical Twilight 5:54 AM CDT 8:55 PM CDT
Moon 1:14 PM CDT (3/20) 2:51 AM CDT (3/20)
Length of Visible Light 13h 00m
Length of Day
12h 08m
First Quarter, 59% of the Moon is Illuminated
Mar 20
First Quarter
Mar 27
Full
Apr 2
Last Quarter
Apr 10
New
Apr 18
First Quarter

Hourly Weather History & Observations

Time (CDT) Temp. Windchill Dew Point Humidity Pressure Visibility Wind Dir Wind Speed Gust Speed Precip Events Conditions
12:53 AM 36.0 °F - 28.9 °F 76% 30.25 in 10.0 mi Calm Calm - N/A   Clear
1:53 AM 34.0 °F - 28.0 °F 79% 30.25 in 10.0 mi Calm Calm - N/A   Clear
2:53 AM 32.0 °F - 27.0 °F 82% 30.25 in 10.0 mi Calm Calm - N/A   Clear
3:53 AM 30.9 °F - 27.0 °F 85% 30.24 in 10.0 mi Calm Calm - N/A   Clear
4:53 AM 30.0 °F - 26.1 °F 85% 30.24 in 10.0 mi Calm Calm - N/A   Clear
5:53 AM 30.0 °F 26.5 °F 26.1 °F 85% 30.26 in 10.0 mi WNW 3.5 mph - N/A   Clear
6:53 AM 30.9 °F 26.2 °F 27.0 °F 85% 30.30 in 10.0 mi NW 4.6 mph - N/A   Clear
7:53 AM 33.1 °F 25.5 °F 30.0 °F 89% 30.32 in 10.0 mi NNW 9.2 mph - N/A   Clear
8:53 AM 35.1 °F 24.1 °F 32.0 °F 89% 30.35 in 10.0 mi NNE 19.6 mph 26.5 mph N/A   Partly Cloudy
9:53 AM 37.9 °F 30.0 °F 28.9 °F 70% 30.37 in 10.0 mi North 12.7 mph - N/A   Partly Cloudy
10:53 AM 39.0 °F 31.4 °F 25.0 °F 57% 30.37 in 10.0 mi North 12.7 mph - N/A   Overcast
11:53 AM 42.1 °F 34.9 °F 24.1 °F 49% 30.37 in 10.0 mi NNE 13.8 mph - N/A   Overcast
12:53 PM 44.1 °F 38.6 °F 21.9 °F 42% 30.33 in 10.0 mi NNW 10.4 mph 20.7 mph N/A   Scattered Clouds
1:53 PM 46.0 °F 41.0 °F 16.0 °F 30% 30.30 in 10.0 mi NNE 10.4 mph 19.6 mph N/A   Clear
2:53 PM 46.9 °F - 18.0 °F 32% 30.26 in 10.0 mi NW 11.5 mph 21.9 mph N/A   Clear
3:53 PM 46.9 °F - 17.1 °F 30% 30.23 in 10.0 mi WNW 15.0 mph 18.4 mph N/A   Clear
4:53 PM 46.0 °F 41.9 °F 17.1 °F 31% 30.21 in 10.0 mi NW 8.1 mph - N/A   Clear
5:53 PM 46.0 °F 39.9 °F 17.1 °F 31% 30.19 in 10.0 mi North 13.8 mph - N/A   Clear
6:53 PM 43.0 °F 38.2 °F 18.0 °F 37% 30.17 in 10.0 mi NNW 8.1 mph - N/A   Clear
7:53 PM 37.0 °F 34.5 °F 19.0 °F 48% 30.17 in 10.0 mi NNW 3.5 mph - N/A   Clear
8:53 PM 34.0 °F - 19.0 °F 54% 30.16 in 10.0 mi Calm Calm - N/A   Clear
9:53 PM 34.0 °F 31.0 °F 19.0 °F 54% 30.15 in 10.0 mi North 3.5 mph - N/A   Clear
10:53 PM 33.1 °F - 21.0 °F 61% 30.14 in 10.0 mi Calm Calm - N/A   Clear
11:53 PM 33.1 °F - 19.9 °F 59% 30.12 in 10.0 mi Calm Calm - N/A   Clear